Location: Dodge City Co - Operative Exchange Grain Elevator Number 8
(38.1218°N, 99.7124°W)
Time: 07:16:50
(UTC+00:00)

SeaSat 1 - Pass Details

Date: 03 March 2021
Orbit: 744 x 747 km, 108.0° (Epoch: 12 April)

Event Time Altitude Azimuth Distance (km) Brightness Sun altitude
Rises 12:29:54 0° 182° (S) 3,167 5.7 -8.2°
Reaches altitude 10° 12:32:27 10° 193° (SSW) 2,248 4.8 -7.7°
Maximum altitude 12:36:36 28° 252° (WSW) 1,381 3.3 -6.9°
Drops below altitude 10° 12:40:48 10° 311° (NW) 2,263 4.5 -6.0°
Sets 12:43:23 0° 323° (NW) 3,192 5.3 -5.5°
